Location: Carrières
(48.9495°N, 2.0407°E)
Time: 02:25:11
(UTC+00:00)

Transit 2A Rocket - Pass Details

Date: 25 April 2024
Orbit: 585 x 908 km, 66.7° (Epoch: 19 May)

Event Time Altitude Azimuth Distance (km) Brightness Sun altitude
Rises 09:37:37 0° 182° (S) 2,869 8.4 45.3°
Reaches altitude 10° 09:40:01 10° 171° (S) 2,005 7.9 45.6°
Maximum altitude 09:43:54 29° 112° (ESE) 1,219 7.6 46.0°
Drops below altitude 10° 09:48:05 10° 53° (NE) 2,174 7.6 46.5°
Sets 09:50:47 0° 43° (NE) 3,158 8.2 46.9°
